カタログに戻る

STARLINK-32581

運用中通信VLEO
NORAD 62184·PAYLOAD·🇺🇸 United States

打ち上げ Nov 30, 2024 から Vandenberg Space Force Base

Loading…

次のパス (今後24時間)

TLE

最新Source: CelesTrak SupGP

元期: Sep 15, 2026, 02:19 UTC

1 62184C 24225X   26258.09701389 -.00011350  00000+0 -39493-3 0  2586
2 62184  70.0013  35.2872 0003598 270.0451 192.0954 15.29574854    16

AllMySatでSTARLINK-32581をリアルタイム追跡

Download on the App Store